星链-33847 (STARLINK-33847)

导读

STARLINK-33847是美国SpaceX公司星链(Starlink)星座的卫星,于2025年4月28日发射。星链是低轨宽带通信星座,旨在为全球提供高速互联网服务,该卫星采用平板设计,搭载霍尔推进器,具备自主避撞能力,服役寿命约5-7年,退役后会坠入大气层烧毁,服务覆盖偏远区域,支持流媒体、视频通话等日常应用。

基本信息
目录编号:
63685
目录名称:
STARLINK-33847
国际标识:
2025-085X
轨道中心:
EARTH
卫星名称:
星链-33847
卫星全名:
星链-33847 (STARLINK-33847)
卫星状态:
在轨 (已飞行494 天)
发射日期:
2025-04-28 UTC
国别 :
美国 (US)
星等 :
--
轨道信息
数据来源 国际轨道数据
星历时间: 2026-09-03T23:10:54+0800
22小时前
查看轨道信息
半长轴: 6861.186km
偏心率: 0.0001405
轨道倾角: 42.999°
近地点辐角 266.209°
升交点赤经 106.010°
平近点角 93.860°
近地点: 482.085km
远地点: 484.013km
周期: 94.267分钟
每日圈数: 15.275801
详细信息
固有亮度:
5
最大亮度:
2.5
卫星平台:
Starlink V1.0
覆盖范围:
全球
运营商:
太空探索技术公司
运营商所在国:
美国
制造商(研发单位):
太空探索技术公司
制造商所在国:
美国
使用方式:
暂无
卫星简介
Starlink 计划是 SpaceX 推出的全球卫星互联网项目,通过发射低轨道卫星,为全球尤其是偏远地区提供高速、低延迟的互联网服务。自 2019 年起,Starlink 已部署数千颗卫星,旨在缩小全球数字鸿沟,推动互联网普及。该项目还为军事、航空等行业提供通信支持,带来广泛经济效益。
2D轨道图
3D轨道图
轨道高度分析图
轨道倾角分析图
轨道综合分析图
查看轨道综合分析图
交会数据列表
事件ID 空间交会对象 最接近时刻(TCA) 交会距离 交会风险概率(CRP) 交会风险指数(CRI) 操作
CDM_260906-014505-683406-368521
2026-09-06T
01:45:32+0000
0.870 km
远距离
2.359492E-5 中风险 0.62
CDM_260906-115705-683406-368521
2026-09-06T
11:57:32+0000
0.934 km
远距离
1.852775E-5 中风险 0.6
CDM_260906-031905-683406-368521
2026-09-06T
03:19:41+0000
1.315 km
极远距离
5.728148E-6 低风险 0.5
CDM_260906-133105-683406-368521
2026-09-06T
13:31:42+0000
1.741 km
极远距离
2.384586E-6 低风险 0.43
CDM_260906-155505-989106-368521
2026-09-06T
15:55:31+0000
2.237 km
极远距离
1.467913E-6 低风险 0.38